Miscellaneous Local Product
Issued by NWS Hastings, NE

Home | Current Version | Previous Version | Graphics & Text | Print | Product List | Glossary On
Versions: 1 2 3 4 5 6 7 8 9 10 11 12 13 14 15 16 17 18 19 20 21 22 23 24 25 26 27 28 29 30 31 32 33 34 35 36 37 38 39 40 41 42 43 44 45 46 47 48 49 50
000
AXUS43 KGID 252102
MISGRI

GID CWA HOURLY WEATHER ROUNDUP
NATIONAL WEATHER SERVICE HASTINGS NE
300 PM CST SUN JAN 25 2015

NOTE: "FAIR" INDICATES FEW OR NO CLOUDS BELOW 12,000 FEET WITH NO
SIGNIFICANT WEATHER AND/OR OBSTRUCTIONS TO VISIBILITY.

...SOUTH CENTRAL NEBRASKA...

CITY           SKY/WX    TMP DP  RH WIND       PRES   REMARKS
GRAND ISLAND   CLOUDY    41  30  65 N13       30.06R
HASTINGS       CLOUDY    43  28  55 N18       30.05R
KEARNEY        CLOUDY    46  27  46 N20       30.05S
ORD            CLOUDY    41  29  62 NW15      30.04S
YORK           CLOUDY    41  32  70 N13G20    30.03S
AURORA         CLOUDY    41  33  74 N16       30.04F
LEXINGTON      MOSUNNY   46  29  50 N9G18     30.05F
HOLDREGE       MOSUNNY   46  25  44 N16G23    30.04F
HEBRON         CLOUDY    42  29  58 NW14G22   30.04R

...NEBRASKA PANHANDLE...

CITY           SKY/WX    TMP DP  RH WIND       PRES   REMARKS
CHADRON        CLOUDY    50  34  54 W10       30.02F
ALLIANCE       CLOUDY    47  35  63 NW15G26   30.02F
SCOTTSBLUFF    MOSUNNY   51  34  52 W8        30.06F
SIDNEY         CLOUDY    52  32  46 NW15      30.07F

...WESTERN AND NORTH CENTRAL NEBRASKA...

CITY           SKY/WX    TMP DP  RH WIND       PRES   REMARKS
VALENTINE      SUNNY     44  28  53 W14       30.03R
AINSWORTH      PTSUNNY   39  29  66 NW9       30.03F WCI  33
ONEILL         CLOUDY    40  35  82 NW10      30.03R WCI  34
BROKEN BOW     MOSUNNY   44  29  55 N14       30.05R
IMPERIAL       SUNNY     55  22  27 NW22G30   30.05F
NORTH PLATTE   SUNNY     51  19  28 NW20G28   30.04F
MCCOOK         SUNNY     54  21  27 N14G20    30.05F

...EASTERN NEBRASKA...

CITY           SKY/WX    TMP DP  RH WIND       PRES   REMARKS
NORFOLK        CLOUDY    39  32  76 NW9       30.03R WCI  33
SO SIOUX CITY  CLOUDY    39  33  79 NW10      30.03R WCI  32
TEKAMAH        CLOUDY    41  33  73 N14       30.03R
COLUMBUS       CLOUDY    39  28  65 NW12      30.05R WCI  32
ALBION         CLOUDY    40  33  75 NW13      30.03R WCI  32
OMAHA EPPLEY   PTSUNNY   43  32  65 N16       30.01R
OFFUTT AFB     CLOUDY    41  30  66 N16       30.01R
MILLARD        CLOUDY    41  30  64 N8G20     30.01R
LINCOLN        CLOUDY    40  31  70 N15       30.04R WCI  32
NEBRASKA CITY  CLOUDY    40  29  66 N14G22    29.99R WCI  32
BEATRICE       CLOUDY    39  32  75 N21G26    30.02R WCI  29
FALLS CITY     CLOUDY    40  32  73 N15G23    29.98R WCI  32

...NORTHERN KANSAS...

CITY           SKY/WX    TMP DP  RH WIND       PRES   REMARKS
GOODLAND       SUNNY     55  28  35 N23G32    30.07F
HILL CITY      SUNNY     52  24  33 N18G29    30.06F
NORTON         PTCLDY    50  19  29 NW14G22   30.05S
PHILLIPSBURG   MOSUNNY   52  27  37 NW18G28   30.06S
SMITH CENTER   MOSUNNY   46  27  46 N17G31    30.05S
BELOIT         CLOUDY    48  28  46 NW20G26   30.05S
HAYS           SUNNY     52  25  35 N20G28    30.07F
RUSSELL        MOSUNNY   52  26  36 N25G31    30.05S
CONCORDIA      CLOUDY    43  31  62 N18G31    30.04S
SALINA         CLOUDY    49  31  49 N24       30.05R
TOPEKA         CLOUDY    40  32  73 N15G23    29.99R WCI  32



USA.gov is the U.S. government's official web portal to all federal, state and local government web resources and services.